TIMESTAMP,CO2_1_1_1,H2O_1_1_1,TAU_1_1_1,TAU_SSITC_TEST_1_1_1,H_1_1_1,H_SSITC_TEST_1_1_1,LE_1_1_1,LE_SSITC_TEST_1_1_1,FC_1_1_1,FC_SSITC_TEST_1_1_1,WD_0_0_1,WS_0_0_1,WS_MAX_0_0_1,U_SIGMA_0_0_1,V_SIGMA_0_0_1,W_SIGMA_0_0_1,USTAR_0_0_1,MO_LENGTH_0_0_1,ZL_0_0_1,FETCH_MAX_0_0_1,FETCH_70_0_0_1,FETCH_80_0_0_1,FETCH_90_0_0_1,PA_0_0_1,RH_0_0_1,TA_0_0_1,VPD_0_0_1,T_SONIC_0_0_1,T_SONIC_SIGMA_0_0_1
[yyyymmddHHMMSS],[mmolCO2 mol-1],[mmolH2O mol-1],[kg m-1 s-2],[#],[W m-2],[#],[W m-2],[#],[umolCO2 m-2 s-1],[#],[Decimal degrees],[m s-1],[m s-1],[m s-1],[m s-1],[m s-1],[m s-1],[m],[#],[m],[m],[m],[m],[kPa],[%],[deg C],[hPa],[deg C],[deg C]
20240619003000,422.65263399389244,25.075748442663016,1.5379987713274628,0,-43.292480915802841,0,90.633051782690288,0,6.4775318177285230,0,166.86387839466894,5.2130028135557112,16.915328130169986,2.6784782711761177,2.0472067261870226,1.5144691271883048,1.1956299075707186,3294.7158206278345,5.7668099570358086E-003,103.63918190403042,189.48547854230358,226.76572254864166,283.88377563135799,93.614226858506939,65.619000000000000,27.111333333333334,12.302719867289143,28.876009627448184,0.11947196608562552
20240619010000,423.36004987106378,25.263930017069452,1.4019303682058546,0,-66.377431874738207,0,107.29504333739895,0,7.5529237256441411,0,165.31691564077670,4.5947502519871390,15.765169144707441,2.3577180668147779,1.8519417162913199,1.4014650345240744,1.1409629453881356,1867.8276943500766,1.0172244504925375E-002,106.22000522889103,194.20404669153106,232.41264348414592,290.95305055459448,93.641406340060769,67.010999999999996,26.885999999999967,11.649529041106703,28.692550772772904,0.14401623332868022
20240619013000,424.45103326628174,24.869143921678074,1.4038318861882706,0,-83.692031569566268,0,41.389924690065648,0,13.020473052667478,0,170.02928409995411,5.1942224218250059,15.927907741294266,2.6164313430757904,1.9550886391698505,1.4250068449481952,1.1409689420373643,1481.8388562215230,1.2821906997665914E-002,104.81426607056157,191.63390717259537,229.33684290277233,287.10251321448936,93.687786078125001,66.814999999999998,26.676333333333332,11.575190321622454,28.470641287061881,0.19938743041482648
20240619020000,425.61546303680097,25.000396748634699,1.0340857925617810,0,-89.816572826950406,0,38.286652021148782,0,15.007501494887721,0,170.54379332064923,4.3189306975516315,13.273398894239374,2.0160277444508030,1.6708448438654731,1.2407273244884189,0.97851879840657707,871.18491751464069,2.1809376652438081E-002,103.55454410857391,189.33073365836873,226.58053244496645,283.65193959701378,93.714680726996519,68.700000000000003,26.298333333333346,10.677230307724217,28.138566547817618,0.19295695565361348
20240619023000,426.81665674741203,25.970485174663178,0.85065519975991455,0,-106.66788587573330,0,-29.726284328686940,2,18.291679002323853,0,173.58732965300996,3.9403216664480802,11.156200981929159,1.8478452054736654,1.4722948987713131,1.1034812770623388,0.88557365006414124,544.03401044477209,3.4924287149743910E-002,105.00806926491099,191.98824122222470,229.76089026199961,287.63337018895174,93.763515104600700,76.907333333333327,25.045666666666648,7.3136935046784952,27.016042602539017,0.67450256554323118
20240619030000,427.90718686095272,26.478125928975302,0.53630446990902558,0,-104.95025258116864,0,68.325047659335453,1,14.589336009098549,0,180.65522301615687,3.1361195540429629,24.445957039674465,1.4759570249802525,1.2969848777583535,0.91396730868671272,0.70241228847159864,276.07113680658318,6.8822841169779714E-002,101.43411652519693,185.45391576026390,221.94097157404212,277.84375993693754,93.825953890190974,80.804000000000002,24.552999999999997,5.9034323698271054,26.594741555319899,0.39688755983876617
20240619033000,430.45945678959362,27.342717774340155,0.19932970653255605,0,-83.347487685691561,0,10.124222662012889,0,9.9926163944707795,0,191.73256309663773,2.4957615853821209,7.1461266006624866,0.97939145864019017,1.1828052825468345,0.59224211049328668,0.42733814936110781,78.315239983013782,0.24260922911199675,96.443464846045174,176.32941280405865,211.02127196603675,264.17359180640852,93.867079525607636,89.719999999999999,23.352666666666664,2.9415437679294336,25.449393127441454,0.34405124873747572
20240619040000,433.14398365315225,27.560306624006390,0.17115040603707907,0,-44.428232361719687,0,-0.20076531445000187,2,8.0607319842082354,0,201.42691346819433,1.8906667018326200,6.8573535191500330,0.91170072739122654,0.96013271102408226,0.52541542547617337,0.39583265737753054,116.77783288536375,0.16270211161266848,99.830200239183256,182.52144524656836,218.43155333256831,273.45038474133037,93.880633259114575,91.570000000000007,23.148333333333312,2.3825986707735818,25.276403926425530,0.23192780105021304
20240619043000,435.23519865790433,25.951125562887754,0.73945745239374261,1,-218.15074701439477,2,-574.25545556644533,1,29.344921617096727,1,238.51866563107072,0.77145759999000252,26.450724267582672,1.5458651919981334,1.5120216004650457,0.68728390840528975,0.82043447335097364,211.77968729422031,8.9715875222743949E-002,144.27167684729824,263.77463836819197,315.67087314406365,395.18247430787034,93.929897817827708,93.613333333333330,21.803333333333342,1.6634627055607734,22.977395860430079,2.3488272828438932
20240619050000,434.52772758238160,25.055336492595615,0.38060966157924259,0,-76.201265550393416,2,209.67499299670035,1,11.902064380102408,1,167.70963823067407,0.78516345600377846,12.667611562229345,1.7307559662171943,1.6218382748020250,0.78761938808750687,0.58765563310375457,222.80140884289418,8.5277737239972437E-002,99.060406103378043,181.11401605306915,216.74722005038146,271.34179934229064,93.953812652777785,94.826666666666668,21.023666666666657,1.2846094280752960,22.662442568743586,1.5277109506967197
20240619053000,432.43872131200368,26.931389932539712,9.9782199594951410E-002,0,-17.590026451034014,2,119.25648531159038,1,5.2672487594466979,0,156.32252869811808,1.5990144410299874,4.8004083272603406,0.81752785672695472,0.76093567994882705,0.51506402382617733,0.30158702541010679,130.51191622629960,0.14558057646671260,81.601106874752020,149.19284870525146,178.54573551494292,223.51807385698493,93.956644656250006,94.953333333333333,22.182999999999993,1.3452318818486264,24.243557345072361,0.70479405495903547
20240619060000,434.09067801786432,27.235011471084452,0.30029064101402625,0,-73.664115936363899,0,0.32817772440674964,2,8.1737433552773275,0,160.94185143341898,2.4838401330996249,7.1786943343438949,1.1268697847261000,0.99539556356396497,0.71643181043804705,0.52361321419424878,163.11816300259599,0.11647997776739075,97.436907051080041,178.14574199700292,213.19495411304226,266.89478391595247,93.962794511501741,93.346666666666664,22.649333333333345,1.8244855759450276,24.731330531650144,0.25278183550329680
20240619063000,434.86430342279795,26.043511701170260,0.56012277542266486,0,-161.97395552146060,1,-313.58803354325283,2,12.776932183862998,1,216.39014784411731,3.1579286707196701,14.666416808708473,2.1663629912982154,2.6787403144135022,1.0674232287024925,0.71407835075497883,188.20186185255415,0.10095543058381357,90.778347641741391,165.97177175812914,198.62582101249413,248.65595811029209,94.024599402560781,92.280000000000001,22.113333333333344,2.0491192326068450,23.855893910726081,1.3855697934741269
20240619070000,429.84281504280608,21.831819628541613,0.78766464419886162,0,101.65916897365290,0,24.933295699985639,2,6.7399803505744398,0,199.40018530071822,3.0267117969594381,14.806115174723246,1.7361057444105954,1.8047711401153643,0.89806295982949236,0.84181171933955623,-491.10101378529151,-3.8688578249009210E-002,118.89988819144742,217.38691678833720,260.15661800238257,325.68521443164502,94.083716938028147,92.013333333333335,19.305999999999983,1.7833462606391595,20.562840309620583,0.75661737075793023
20240619073000,432.85915579219073,22.184794102084524,1.0540254933370286,0,162.70614219058083,0,-8.5370737659365563,1,14.443077541383865,0,155.59268364749613,2.6002287519196381,20.991764499388402,1.7341412817882298,1.4059445466804530,0.96639487805618707,0.97383490445736720,-474.93419443405674,-4.0005542289160430E-002,125.98518367620122,230.34109667356057,275.65946278128700,345.09293646034911,94.047952934156626,94.223333333333329,19.176333333333332,1.2794993585695056,20.384279929589241,2.6973988077841842
20240619080000,433.79044555777585,21.979165574355150,0.25537101089977177,0,-39.410787498959117,0,-0.35636196099009854,1,6.4825877708914446,0,141.79203648998364,2.3907649226359036,6.7769045086146891,0.90043414204441996,0.86919288880014134,0.60823346150809754,0.47927494443407825,233.63414830055814,8.1323728308575385E-002,103.48238586225501,189.19880537040549,226.42264797922937,283.45428698116319,93.997536965060775,94.563333333333333,18.960666666666668,1.1881029864683752,20.137289731343571,0.22862983789420227
20240619083000,436.99702622753773,21.940948980821567,0.35490824040050672,0,-48.937643861948921,0,0.23208653385857289,2,16.900004499117244,0,148.73653712202255,2.6913940984966742,7.3278553150002619,1.0860865680088410,0.91034484244845981,0.69496704001173748,0.56493008715509863,308.12356644962324,6.1663572893592387E-002,106.09118431391322,193.96852097362805,232.13077935392374,290.60019011077071,93.994583710937505,94.920000000000002,18.872000000000014,1.1040295517212917,19.990762159135613,0.17891274616887248
20240619090000,437.81729212615534,22.078691908531638,0.24871685448344799,0,-63.905118336366932,0,1.4204443694118425,0,10.510119461049939,0,167.75745585458259,2.9150685597450705,7.3306754422559619,1.0103472102281150,0.92492505965790250,0.64703990755518537,0.47287851721437923,138.43413989758312,0.13724938092624156,97.433816308966968,178.14009113467856,213.18819147409039,266.88631789446868,94.035482616319442,95.209999999999994,18.930333333333351,1.0448032734768504,20.242278516133638,0.18799508951061980
20240619093000,438.09116076104795,22.246105520831197,0.52667552644967164,0,-80.100422998589480,0,-2.9044262168622055,1,12.208018466108566,0,176.12600926367449,3.2456289809537107,8.6659510801909949,1.4152975152045302,1.3174620419117946,0.87991310259312949,0.68844725537826723,340.85278353382006,5.5742540233985748E-002,102.89626490524660,188.12718932730266,225.14019727019166,281.84881087458518,94.048883012152771,94.196666666666673,19.225333333333310,1.2893359610724429,20.722912400139705,0.21930587480253472
20240619100000,439.28886619855973,22.849133264205793,0.75524021859704138,0,-61.653322026287782,0,5.7172788236504539,1,12.045565476770019,0,197.73098867640391,4.1807378914671718,11.345702881052665,1.6681204806058672,1.3407722489814240,1.0326127338651230,0.82452393511752309,761.21579613587153,2.4960070582414236E-002,104.58455011991745,191.21391315067319,228.83421732650143,286.47328563671880,94.114271699869789,95.506666666666661,19.444333333333361,1.0119909889338350,21.037595875210229,0.20063085523377364
20240619103000,440.72422158769444,23.300790918689735,0.79494421086960443,0,-44.391064563318146,0,13.153872034860882,2,8.8266510313120818,0,208.87075648475397,4.2421344107344510,10.825528827720166,1.7596955233262619,1.4794952024053658,1.0720481065347593,0.84623895572050989,1143.5502556934498,1.6614923485350791E-002,103.62818494560663,189.46537259500491,226.74166086485573,283.85365325852126,94.168625087890632,95.416666666666671,19.783999999999992,1.0542669073064508,21.424695970323398,0.16384972922908436
20240619110000,439.49693512153107,22.925867451833032,0.91331879226676282,0,-75.325304187124658,0,-16.759920259246819,2,9.3727628764363971,0,215.30580019168781,4.8144031533605816,12.913722792223373,1.9392190126546958,1.6233943588615647,1.1997417710569416,0.90680665783950964,829.60853819630870,2.2902367954540103E-002,100.09132444322915,182.99886357285769,219.00290113479471,274.16564439112119,94.237627490451388,93.409999999999997,19.877000000000010,1.5246095745559205,21.460454981486009,0.18455566856073985
20240619113000,439.43113681918760,22.388382655059353,1.1722789582468571,0,-60.561365583902877,0,-6.9942066617583150,2,8.6536239725171846,0,222.97729859637462,4.8002571155260663,12.598639681193012,2.0040783722755404,1.5546768254699113,1.1701053309526934,1.0260051704515483,1495.2278441602984,1.2707093486926179E-002,112.71833704471061,206.08506978748204,246.63119367435974,308.75298815819787,94.307636898871522,94.109999999999999,19.386666666666656,1.3217995037323453,20.883454611248396,0.35676244180951600
20240619120000,441.65050203642409,21.950212251946198,0.95774902170243092,0,-17.423397733614291,0,14.209006105988831,1,3.3027123305335637,0,226.81467292533986,5.2821361931738098,13.412539940200791,1.9403954762208551,1.5301395222112324,1.1284826118688411,0.92617267768515010,3824.4836411735973,4.9679909192053909E-003,106.90858329682487,195.46298701042514,233.91927350801814,292.83917256126000,94.372611365017363,95.340000000000003,18.872333333333302,1.0127726040147491,20.031353118331367,0.27918704768877067
20240619123000,442.46943437519514,21.495251335868470,0.82883199962601306,0,-35.777095576845760,0,10.319357508241310,1,-1.1948196141958494,0,227.76584133094980,4.5225807950457177,11.923151285667528,1.6552323532486408,1.3794852983026979,1.0311711321151942,0.86098953897365027,1497.1238958206109,1.2691000426244367E-002,108.38984683392789,198.17120918102404,237.16032375663130,296.89658287551021,94.456599593098943,94.003333333333330,18.777333333333331,1.2955613060349651,20.008495466585543,0.14771278482307620
20240619130000,443.29807709510339,21.069820503893762,0.79232647482482144,0,-6.7945656239092429,0,-10.269221409599918,1,-3.4686782542767207,0,234.02389723518399,4.3250435037781028,12.717864750801951,1.6730722131866835,1.2512348997410121,1.0115678152173344,0.84120794913275021,7355.7450375466697,2.5830150315184100E-003,108.03925772426990,197.53022047390766,236.39322398501309,295.93626498881451,94.530787638888896,93.053333333333327,18.632666666666694,1.4872881460871030,20.026933667500771,7.7381773195503600E-002
20240619133000,440.77400137991964,20.207151959863548,1.1344272007388994,0,11.383122273183233,1,33.792235400016523,0,-7.9372783943051459,0,236.09082757209598,4.8924774804374325,13.610972594366951,2.0560216345927662,1.5666152744038568,1.1040062092049092,1.0055970388602913,-7503.5730188356420,-2.5321270216609824E-003,116.20287567723851,212.45591774433973,254.25547154144616,318.29767931806583,94.606557104166669,90.603333333333339,18.403999999999996,1.9832271994977395,19.716796799553777,0.10015247917338986
20240619140000,438.43527751941247,19.654777348615429,0.76029709713125870,0,48.999348483340462,0,67.799775248401431,0,-13.817277015554904,0,237.05211690904721,4.7398415331502912,11.777876658141981,1.9529137626414212,1.3642932961557435,0.98170848079718498,0.82313539131992808,-956.41037103650558,-1.9865949361683347E-002,108.75416179613875,198.83729312424322,237.95745611645179,297.89449799883857,94.669050014322920,87.203333333333333,18.582666666666682,2.7312182020760427,19.918879765828478,0.20375894072469242
20240619143000,436.32661131762313,19.293481330477924,1.0403040129957506,0,31.687025069450375,0,76.939803633600306,0,-8.8256086619338330,0,233.65625099460746,4.2893250688074955,12.023495946788046,1.8960598552108883,1.5896306575998544,1.1043435880364478,0.96264766949515557,-2366.0896147295198,-8.0301269578802459E-003,112.18774525216884,205.11497876714287,245.47024248771748,307.29961503600117,94.704956061090499,85.489999999999995,18.609333333333325,3.1020720499802112,19.929755054050020,0.10588604115199649
20240619150000,432.62347182384343,19.423629589413739,0.79468397360871867,0,65.706527518691132,0,110.26936872864209,0,-14.679958476612345,0,234.91537039991098,4.1099583948357648,10.961532390169117,1.7508368867447610,1.3790217357301404,1.0106249013045281,0.84172756747735256,-763.11736244985320,-2.4897874081915610E-002,108.17331643751447,197.77532255755241,236.68654857919020,296.30347257356169,94.754250108537093,84.043333333333337,18.998333333333335,3.4953000991934005,20.313916177582769,0.22094314313158189
20240619153000,429.59240956945877,18.675020125455124,0.88427626449575625,0,59.237932891260805,0,142.47628202837015,0,-12.111520317719394,0,236.85349850439491,3.8071166845172635,10.589470982676048,1.7098584297498225,1.5893705091473731,0.96091966730534806,0.88805325451038075,-994.24421457650089,-1.9109993019263447E-002,117.55915132082851,214.93562218275278,257.22304442887599,322.01272842811875,94.798826861768632,79.265666666666661,19.314333333333309,4.6321805669404243,20.523325849107948,0.29905126042340502
20240619160000,426.92466148118677,18.524347597324709,0.73022005372166920,0,101.65770735541113,0,207.87430869705724,1,-18.148386003968763,0,248.10397533518227,4.0352073823747894,9.9072635075697981,1.7571719204059075,1.7808984693561603,0.95337497725328779,0.80678404634450374,-434.55745211059360,-4.3722642213864404E-002,109.55942441355099,200.30957001421211,239.71939552898007,300.10023706398732,94.845050832899318,78.640000000000001,19.319333333333361,4.7734438474214835,20.471445690578889,0.40656335399219101
20240619163000,424.42024384955607,17.736120479998078,0.75890009663577951,0,64.084307934585695,1,75.806851981718779,1,-15.645350517137931,0,258.95257452152850,4.2301398053261456,11.695681022262015,1.6885324823452179,1.4817627439437560,0.97521571206895863,0.82189138696387420,-728.98278381000512,-2.6063715662387951E-002,109.20081795906795,199.65392304375456,238.93475355991518,299.11795842772131,94.897628273871518,76.115333333333339,19.153999999999996,5.2829621481325013,20.163896590338766,0.38896698911427924
20240619170000,422.65107598211080,17.078050070429654,0.85478725961801816,0,130.23233851380951,0,210.78754771124801,0,-17.499548804519428,0,257.47009069853601,4.1170240585823912,9.8184737604539905,1.6557942010867701,1.5506723733368124,0.99026961750991216,0.87152222585384131,-427.89014538159086,-4.4403920504072068E-002,113.05113054475059,206.69352244459813,247.35935610395069,309.66456111314847,94.971693261604813,74.270666666666671,18.953666666666663,5.6203084925089799,19.947136604262028,0.30405934125966000
20240619173000,421.71062458359137,16.758487587983552,0.95250749387735156,0,275.51595704770006,1,249.29068895436114,1,-29.863814822921768,1,244.47715471069398,3.1815086935954517,9.7331594956435801,1.6977141456648708,1.3104589693801361,0.96555891707992469,0.92018536558063391,-238.15444839600130,-7.9780160009469789E-002,120.48476482151305,220.28457673857289,263.62437689013689,330.02643705987418,95.028380311631949,71.424666666666667,19.286999999999978,6.3730556585214160,20.193230239868171,0.53197718609957967
20240619180000,418.95022657191521,16.686146728143466,0.71983611352941679,0,212.91849336893003,0,206.88817037990174,0,-28.132453150727006,0,260.63600449414071,2.9709828875561874,8.7905267849542668,1.4170066137586601,1.4828359692392430,0.94134446419174322,0.79941526028483145,-202.12001167485067,-9.4003556810422079E-002,109.86870078352487,200.87502585716345,240.39610175355537,300.94739295627380,95.069333854600700,72.265666666666661,19.036666666666690,6.0897393666977271,19.990368721008281,0.42664365481377997
20240619183000,419.56370945937914,16.014173030026633,0.71315306379926902,0,274.30306251462696,0,226.13520648171044,0,-24.661896296124077,0,271.53987582079247,3.5590614100675779,9.8077313299626567,1.6536186801975230,1.6360909298633248,0.93445165891156978,0.79593902260909954,-154.87180839142272,-0.12268210849568849,110.13193411254606,201.35630033657850,240.97206438619801,301.66842982613008,95.101785657552085,67.868666666666670,19.389999999999986,7.2122221897117695,20.150533951653415,0.58131379923222737
20240619190000,419.21423789258910,15.275824623272648,0.38359711599002694,1,205.38231910688879,0,191.30640675156010,0,-18.398913930406792,0,261.99238217739651,2.9372659874560272,8.3897506855372868,1.2762892431765012,1.4334099503201772,0.80160948003854526,0.58365450858419854,-81.564607724710100,-0.23294417186590510,97.142505331820757,177.60748175958440,212.55079408243517,266.08837199644233,95.128922229166662,64.472666666666669,19.461000000000013,8.0097820086640947,20.194544855753577,0.52519183941611181
20240619193000,417.26751304457275,14.923980019399318,0.53974459056968305,0,188.43869356338712,0,244.08607431478939,0,-18.833929195022623,0,284.31403876266620,3.0750543643206005,8.3047847673351054,1.4469670153614487,1.5615229942667563,0.84845803576547840,0.69296147997459268,-148.77442504696211,-0.12771012217995439,106.49222011442897,194.70174232077926,233.00825803911866,291.69868929922609,95.127288404765224,60.800666666666665,20.030333333333317,9.1553846517360054,20.673827719681867,0.53160612805026430
20240619200000,413.46492128482043,14.475023640551687,0.34660031515961298,1,211.70259279047298,0,199.25258163715131,0,-17.730522524459715,0,280.78193983073584,3.2066395220652768,8.4901032701435764,1.2376700554784523,1.2582740408415947,0.78437374578203600,0.55555294590496962,-68.239668337731246,-0.27843042709359817,95.020393525604021,173.72758456497320,207.90754808005596,260.27557898907821,95.141260422743059,57.689333333333337,20.388333333333321,10.103201383163892,20.934156494140666,0.58052879143379088
20240619203000,413.01402092622385,14.346456137038857,0.36102499544963479,0,82.238228948919101,0,192.96351811156862,0,-14.118604343752573,0,278.70694085051611,3.0107140587508332,8.0599743026924155,1.4803927410064828,1.4602012472809798,0.67289950298105661,0.56689911991571029,-186.65880654556295,-0.10179000043784243,109.16900700517951,199.59576247446310,238.86515021288997,299.03082329667933,95.149941758680555,57.389666666666663,20.329666666666640,10.137966931350668,20.881948036193819,0.45315008203941942
20240619210000,411.60600446850248,15.480021450451032,0.45212475552974962,0,114.35787385876300,0,146.96637325574613,0,-16.995843594943860,0,315.94044902707810,2.8456484773317023,7.2463680234519048,1.3035258355195001,1.1809821824676416,0.71913354159173337,0.63394127159872760,-187.77118264730939,-0.10118698584163312,113.20001509656366,206.96573088960477,247.68512008961667,310.07237896664151,95.169357897594750,63.863333333333330,19.834666666666635,8.3383800094560758,20.616225405375133,0.32683862470145270
20240619213000,410.86965191584778,15.678010950780752,0.42180088150774664,0,185.03741948038169,0,196.92776724039314,0,-17.150494400157516,0,300.94570408017148,2.9864725765407210,8.6390356219984419,1.3103412465363198,1.3848815861399304,0.69510738335348454,0.61234434131580562,-104.61619719304099,-0.18161623639349672,113.13837733350957,206.85303740038563,247.55025476534016,309.90354358434888,95.202359702256942,64.265666666666661,19.944000000000017,8.3016003661275075,20.555850877549915,0.47719424048417441
20240619220000,409.55433278023071,15.593838379646421,0.54160298333827361,0,146.97436274980615,0,162.72629649689398,0,-18.530643765198128,0,318.57922200495744,2.9176449072245392,9.5074703058141683,1.5359346181107880,1.2463954588591004,0.76078147588922040,0.69319868704720145,-191.11531695932678,-9.9416416759749229E-002,116.23398870301952,212.51280227845803,254.32354780027305,318.38290271589432,95.234055474176856,65.817999999999998,19.478000000000009,7.7146206487440558,20.193989148766605,0.39209310700095618
20240619223000,410.06102924940069,14.976909561722223,1.0571668438520752,0,213.95989215023832,1,322.07931066095517,1,-16.766526441077090,0,325.00272914296136,3.2722417260781373,10.018606450211044,1.8737159977219293,1.1330532036302390,0.86404877016346138,0.96723314071000188,-356.63007794346510,-5.3276493417394766E-002,137.04059308925690,250.55391102261402,299.84903913228607,375.37541561224845,95.247944010850702,65.794666666666672,18.838333333333310,7.4181811161718363,19.481630616082157,0.47225606079004778
20240619230000,411.03508013353269,14.040272504101727,0.76623757158169947,0,117.49233569100568,0,171.85702116995867,0,-12.116463241131255,0,326.37412060864017,3.1267835637092616,9.0588741715349350,1.6617575889627849,1.1587228998065457,0.80665541973730981,0.82222883868285879,-398.98603972771980,-4.7620713779775795E-002,127.14480468680502,232.46125372309655,278.19674927391537,348.26931806375171,95.281273914062510,64.325999999999993,18.173333333333346,7.4210410323662135,18.822299134148579,0.35060205892109303